owner,sensor,date,latitude,longitude,vertical_datum,sea_water_practical_salinity,qcFlag 
WAVCIS,ioos:station:WAVCIS:CSI16:2,2010-02-01T00:00:00Z,29.4012,-89.0355,1.0,28.01,11111222 
WAVCIS,ioos:station:WAVCIS:CSI16:2,2010-02-01T00:15:00Z,29.4012,-89.0355,1.0,28.315,11111222 
WAVCIS,ioos:station:WAVCIS:CSI16:2,2010-02-01T00:30:00Z,29.4012,-89.0355,1.0,28.591,11111222 
WAVCIS,ioos:station:WAVCIS:CSI16:2,2010-02-01T00:45:00Z,29.4012,-89.0355,1.0,28.745,11111222 
WAVCIS,ioos:station:WAVCIS:CSI16:2,2010-02-01T01:00:00Z,29.4012,-89.0355,1.0,28.957,11111222 
WAVCIS,ioos:station:WAVCIS:CSI16:2,2010-02-01T01:15:00Z,29.4012,-89.0355,1.0,29.134,11111222 
WAVCIS,ioos:station:WAVCIS:CSI16:2,2010-02-01T01:30:00Z,29.4012,-89.0355,1.0,29.307,11111222 
WAVCIS,ioos:station:WAVCIS:CSI16:2,2010-02-01T01:45:00Z,29.4012,-89.0355,1.0,29.579,11111222 
WAVCIS,ioos:station:WAVCIS:CSI16:2,2010-02-01T02:00:00Z,29.4012,-89.0355,1.0,29.864,11111222 
WAVCIS,ioos:station:WAVCIS:CSI16:2,2010-02-01T02:15:00Z,29.4012,-89.0355,1.0,29.253,11111222 
WAVCIS,ioos:station:WAVCIS:CSI16:2,2010-02-01T02:30:00Z,29.4012,-89.0355,1.0,29.498,11111222 
WAVCIS,ioos:station:WAVCIS:CSI16:2,2010-02-01T02:45:00Z,29.4012,-89.0355,1.0,29.719,11111222 
WAVCIS,ioos:station:WAVCIS:CSI16:2,2010-02-01T03:00:00Z,29.4012,-89.0355,1.0,28.741,11111222 
WAVCIS,ioos:station:WAVCIS:CSI16:2,2010-02-01T03:15:00Z,29.4012,-89.0355,1.0,30.128,11111222 
WAVCIS,ioos:station:WAVCIS:CSI16:2,2010-02-01T03:30:00Z,29.4012,-89.0355,1.0,30.296,11111222 
WAVCIS,ioos:station:WAVCIS:CSI16:2,2010-02-01T03:45:00Z,29.4012,-89.0355,1.0,30.329,11111222 
WAVCIS,ioos:station:WAVCIS:CSI16:2,2010-02-01T04:00:00Z,29.4012,-89.0355,1.0,30.364,11111222 
WAVCIS,ioos:station:WAVCIS:CSI16:2,2010-02-01T04:15:00Z,29.4012,-89.0355,1.0,30.368,11111222 
WAVCIS,ioos:station:WAVCIS:CSI16:2,2010-02-01T04:30:00Z,29.4012,-89.0355,1.0,30.371,11111222 
WAVCIS,ioos:station:WAVCIS:CSI16:2,2010-02-01T04:45:00Z,29.4012,-89.0355,1.0,30.364,11111222 
WAVCIS,ioos:station:WAVCIS:CSI16:2,2010-02-01T05:00:00Z,29.4012,-89.0355,1.0,30.378,11111222 
WAVCIS,ioos:station:WAVCIS:CSI16:2,2010-02-01T05:15:00Z,29.4012,-89.0355,1.0,30.398,11111222 
WAVCIS,ioos:station:WAVCIS:CSI16:2,2010-02-01T05:30:00Z,29.4012,-89.0355,1.0,30.485,11111222 
WAVCIS,ioos:station:WAVCIS:CSI16:2,2010-02-01T05:45:00Z,29.4012,-89.0355,1.0,30.503,11111222 
WAVCIS,ioos:station:WAVCIS:CSI16:2,2010-02-01T06:00:00Z,29.4012,-89.0355,1.0,30.517,11111222 
WAVCIS,ioos:station:WAVCIS:CSI16:2,2010-02-01T06:15:00Z,29.4012,-89.0355,1.0,30.522,11111222 
WAVCIS,ioos:station:WAVCIS:CSI16:2,2010-02-01T06:30:00Z,29.4012,-89.0355,1.0,30.517,11111222 
WAVCIS,ioos:station:WAVCIS:CSI16:2,2010-02-01T06:45:00Z,29.4012,-89.0355,1.0,30.511,11111222 
WAVCIS,ioos:station:WAVCIS:CSI16:2,2010-02-01T07:00:00Z,29.4012,-89.0355,1.0,30.501,11111222 
WAVCIS,ioos:station:WAVCIS:CSI16:2,2010-02-01T07:15:00Z,29.4012,-89.0355,1.0,30.496,11111222 
WAVCIS,ioos:station:WAVCIS:CSI16:2,2010-02-01T07:30:00Z,29.4012,-89.0355,1.0,30.492,11111222 
WAVCIS,ioos:station:WAVCIS:CSI16:2,2010-02-01T07:45:00Z,29.4012,-89.0355,1.0,30.47,11111222 
WAVCIS,ioos:station:WAVCIS:CSI16:2,2010-02-01T08:00:00Z,29.4012,-89.0355,1.0,30.468,11111222 
WAVCIS,ioos:station:WAVCIS:CSI16:2,2010-02-01T08:15:00Z,29.4012,-89.0355,1.0,30.462,11111222 
WAVCIS,ioos:station:WAVCIS:CSI16:2,2010-02-01T08:30:00Z,29.4012,-89.0355,1.0,30.439,11111222 
WAVCIS,ioos:station:WAVCIS:CSI16:2,2010-02-01T08:45:00Z,29.4012,-89.0355,1.0,30.396,11111222 
WAVCIS,ioos:station:WAVCIS:CSI16:2,2010-02-01T09:00:00Z,29.4012,-89.0355,1.0,30.311,11111222 
WAVCIS,ioos:station:WAVCIS:CSI16:2,2010-02-01T09:15:00Z,29.4012,-89.0355,1.0,30.176,11111222 
WAVCIS,ioos:station:WAVCIS:CSI16:2,2010-02-01T09:30:00Z,29.4012,-89.0355,1.0,29.956,11111222 
WAVCIS,ioos:station:WAVCIS:CSI16:2,2010-02-01T09:45:00Z,29.4012,-89.0355,1.0,28.254,11111222 
WAVCIS,ioos:station:WAVCIS:CSI16:2,2010-02-01T10:00:00Z,29.4012,-89.0355,1.0,28.166,11111222 
WAVCIS,ioos:station:WAVCIS:CSI16:2,2010-02-01T10:15:00Z,29.4012,-89.0355,1.0,28.164,11111222 
WAVCIS,ioos:station:WAVCIS:CSI16:2,2010-02-01T10:30:00Z,29.4012,-89.0355,1.0,28.087,11111222 
WAVCIS,ioos:station:WAVCIS:CSI16:2,2010-02-01T10:45:00Z,29.4012,-89.0355,1.0,28.022,11111222 
WAVCIS,ioos:station:WAVCIS:CSI16:2,2010-02-01T11:00:00Z,29.4012,-89.0355,1.0,27.971,11111222 
WAVCIS,ioos:station:WAVCIS:CSI16:2,2010-02-01T11:15:00Z,29.4012,-89.0355,1.0,27.872,11111222 
WAVCIS,ioos:station:WAVCIS:CSI16:2,2010-02-01T11:30:00Z,29.4012,-89.0355,1.0,27.859,11111222 
WAVCIS,ioos:station:WAVCIS:CSI16:2,2010-02-01T11:45:00Z,29.4012,-89.0355,1.0,27.812,11111222 
WAVCIS,ioos:station:WAVCIS:CSI16:2,2010-02-01T12:00:00Z,29.4012,-89.0355,1.0,27.593,11111222 
WAVCIS,ioos:station:WAVCIS:CSI16:2,2010-02-01T12:15:00Z,29.4012,-89.0355,1.0,27.632,11111222 
WAVCIS,ioos:station:WAVCIS:CSI16:2,2010-02-01T12:30:00Z,29.4012,-89.0355,1.0,27.645,11111222 
WAVCIS,ioos:station:WAVCIS:CSI16:2,2010-02-01T12:45:00Z,29.4012,-89.0355,1.0,28.112,11111222 
WAVCIS,ioos:station:WAVCIS:CSI16:2,2010-02-01T13:00:00Z,29.4012,-89.0355,1.0,28.037,11111222 
WAVCIS,ioos:station:WAVCIS:CSI16:2,2010-02-01T13:15:00Z,29.4012,-89.0355,1.0,28.301,11111222 
WAVCIS,ioos:station:WAVCIS:CSI16:2,2010-02-01T13:30:00Z,29.4012,-89.0355,1.0,28.281,11111222 
WAVCIS,ioos:station:WAVCIS:CSI16:2,2010-02-01T13:45:00Z,29.4012,-89.0355,1.0,28.457,11111222 
WAVCIS,ioos:station:WAVCIS:CSI16:2,2010-02-01T14:00:00Z,29.4012,-89.0355,1.0,28.033,11111222 
WAVCIS,ioos:station:WAVCIS:CSI16:2,2010-02-01T14:15:00Z,29.4012,-89.0355,1.0,27.831,11111222 
WAVCIS,ioos:station:WAVCIS:CSI16:2,2010-02-01T14:30:00Z,29.4012,-89.0355,1.0,27.792,11111222 
WAVCIS,ioos:station:WAVCIS:CSI16:2,2010-02-01T14:45:00Z,29.4012,-89.0355,1.0,27.845,11111222 
WAVCIS,ioos:station:WAVCIS:CSI16:2,2010-02-01T15:00:00Z,29.4012,-89.0355,1.0,28.031,11111222 
WAVCIS,ioos:station:WAVCIS:CSI16:2,2010-02-01T15:15:00Z,29.4012,-89.0355,1.0,28.189,11111222 
WAVCIS,ioos:station:WAVCIS:CSI16:2,2010-02-01T15:30:00Z,29.4012,-89.0355,1.0,28.492,11111222 
WAVCIS,ioos:station:WAVCIS:CSI16:2,2010-02-01T15:45:00Z,29.4012,-89.0355,1.0,28.545,11111222 
WAVCIS,ioos:station:WAVCIS:CSI16:2,2010-02-01T16:00:00Z,29.4012,-89.0355,1.0,28.703,11111222 
WAVCIS,ioos:station:WAVCIS:CSI16:2,2010-02-01T16:15:00Z,29.4012,-89.0355,1.0,28.688,11111222 
WAVCIS,ioos:station:WAVCIS:CSI16:2,2010-02-01T16:30:00Z,29.4012,-89.0355,1.0,28.559,11111222 
WAVCIS,ioos:station:WAVCIS:CSI16:2,2010-02-01T16:45:00Z,29.4012,-89.0355,1.0,28.568,11111222 
WAVCIS,ioos:station:WAVCIS:CSI16:2,2010-02-01T17:00:00Z,29.4012,-89.0355,1.0,28.546,11111222 
WAVCIS,ioos:station:WAVCIS:CSI16:2,2010-02-01T17:15:00Z,29.4012,-89.0355,1.0,28.552,11111222 
WAVCIS,ioos:station:WAVCIS:CSI16:2,2010-02-01T17:30:00Z,29.4012,-89.0355,1.0,28.628,11111222 
WAVCIS,ioos:station:WAVCIS:CSI16:2,2010-02-01T17:45:00Z,29.4012,-89.0355,1.0,28.654,11111222 
WAVCIS,ioos:station:WAVCIS:CSI16:2,2010-02-01T18:00:00Z,29.4012,-89.0355,1.0,28.717,11111222 
WAVCIS,ioos:station:WAVCIS:CSI16:2,2010-02-01T18:15:00Z,29.4012,-89.0355,1.0,28.761,11111222 
WAVCIS,ioos:station:WAVCIS:CSI16:2,2010-02-01T18:30:00Z,29.4012,-89.0355,1.0,28.728,11111222 
WAVCIS,ioos:station:WAVCIS:CSI16:2,2010-02-01T18:45:00Z,29.4012,-89.0355,1.0,28.697,11111222 
WAVCIS,ioos:station:WAVCIS:CSI16:2,2010-02-01T19:00:00Z,29.4012,-89.0355,1.0,28.747,11111222 
WAVCIS,ioos:station:WAVCIS:CSI16:2,2010-02-01T19:15:00Z,29.4012,-89.0355,1.0,28.8,11111222 
WAVCIS,ioos:station:WAVCIS:CSI16:2,2010-02-01T19:30:00Z,29.4012,-89.0355,1.0,28.864,11111222 
WAVCIS,ioos:station:WAVCIS:CSI16:2,2010-02-01T19:45:00Z,29.4012,-89.0355,1.0,28.996,11111222 
WAVCIS,ioos:station:WAVCIS:CSI16:2,2010-02-01T20:00:00Z,29.4012,-89.0355,1.0,29.06,11111222 
WAVCIS,ioos:station:WAVCIS:CSI16:2,2010-02-01T20:15:00Z,29.4012,-89.0355,1.0,29.103,11111222 
WAVCIS,ioos:station:WAVCIS:CSI16:2,2010-02-01T20:30:00Z,29.4012,-89.0355,1.0,29.162,11111222 
WAVCIS,ioos:station:WAVCIS:CSI16:2,2010-02-01T20:45:00Z,29.4012,-89.0355,1.0,29.206,11111222 
WAVCIS,ioos:station:WAVCIS:CSI16:2,2010-02-01T21:00:00Z,29.4012,-89.0355,1.0,29.353,11111222 
WAVCIS,ioos:station:WAVCIS:CSI16:2,2010-02-01T21:15:00Z,29.4012,-89.0355,1.0,29.334,11111222 
WAVCIS,ioos:station:WAVCIS:CSI16:2,2010-02-01T21:30:00Z,29.4012,-89.0355,1.0,29.329,11111222 
WAVCIS,ioos:station:WAVCIS:CSI16:2,2010-02-01T21:45:00Z,29.4012,-89.0355,1.0,29.396,11111222 
WAVCIS,ioos:station:WAVCIS:CSI16:2,2010-02-01T22:00:00Z,29.4012,-89.0355,1.0,29.405,11111222 
WAVCIS,ioos:station:WAVCIS:CSI16:2,2010-02-01T22:15:00Z,29.4012,-89.0355,1.0,29.438,11111222 
WAVCIS,ioos:station:WAVCIS:CSI16:2,2010-02-01T22:30:00Z,29.4012,-89.0355,1.0,29.421,11111222 
WAVCIS,ioos:station:WAVCIS:CSI16:2,2010-02-01T22:45:00Z,29.4012,-89.0355,1.0,29.445,11111222 
WAVCIS,ioos:station:WAVCIS:CSI16:2,2010-02-01T23:00:00Z,29.4012,-89.0355,1.0,29.468,11111222 
WAVCIS,ioos:station:WAVCIS:CSI16:2,2010-02-01T23:15:00Z,29.4012,-89.0355,1.0,29.46,11111222 
WAVCIS,ioos:station:WAVCIS:CSI16:2,2010-02-01T23:30:00Z,29.4012,-89.0355,1.0,29.437,11111222 
WAVCIS,ioos:station:WAVCIS:CSI16:2,2010-02-01T23:45:00Z,29.4012,-89.0355,1.0,29.386,11111222 
WAVCIS,ioos:station:WAVCIS:CSI16:2,2010-02-02T00:00:00Z,29.4012,-89.0355,1.0,29.329,11111222 
WAVCIS,ioos:station:WAVCIS:CSI16:2,2010-02-02T00:15:00Z,29.4012,-89.0355,1.0,29.236,11111222 
WAVCIS,ioos:station:WAVCIS:CSI16:2,2010-02-02T00:30:00Z,29.4012,-89.0355,1.0,29.151,11111222 
WAVCIS,ioos:station:WAVCIS:CSI16:2,2010-02-02T00:45:00Z,29.4012,-89.0355,1.0,29.062,11111222 
WAVCIS,ioos:station:WAVCIS:CSI16:2,2010-02-02T01:00:00Z,29.4012,-89.0355,1.0,29.022,11111222 
WAVCIS,ioos:station:WAVCIS:CSI16:2,2010-02-02T01:15:00Z,29.4012,-89.0355,1.0,28.974,11111222 
WAVCIS,ioos:station:WAVCIS:CSI16:2,2010-02-02T01:30:00Z,29.4012,-89.0355,1.0,28.931,11111222 
WAVCIS,ioos:station:WAVCIS:CSI16:2,2010-02-02T01:45:00Z,29.4012,-89.0355,1.0,28.9,11111222 
WAVCIS,ioos:station:WAVCIS:CSI16:2,2010-02-02T02:00:00Z,29.4012,-89.0355,1.0,28.834,11111222 
WAVCIS,ioos:station:WAVCIS:CSI16:2,2010-02-02T02:15:00Z,29.4012,-89.0355,1.0,28.836,11111222 
WAVCIS,ioos:station:WAVCIS:CSI16:2,2010-02-02T02:30:00Z,29.4012,-89.0355,1.0,28.781,11111222 
WAVCIS,ioos:station:WAVCIS:CSI16:2,2010-02-02T02:45:00Z,29.4012,-89.0355,1.0,28.816,11111222 
WAVCIS,ioos:station:WAVCIS:CSI16:2,2010-02-02T03:00:00Z,29.4012,-89.0355,1.0,28.763,11111222 
WAVCIS,ioos:station:WAVCIS:CSI16:2,2010-02-02T03:15:00Z,29.4012,-89.0355,1.0,28.754,11111222 
WAVCIS,ioos:station:WAVCIS:CSI16:2,2010-02-02T03:30:00Z,29.4012,-89.0355,1.0,28.676,11111222 
WAVCIS,ioos:station:WAVCIS:CSI16:2,2010-02-02T03:45:00Z,29.4012,-89.0355,1.0,28.663,11111222 
WAVCIS,ioos:station:WAVCIS:CSI16:2,2010-02-02T04:00:00Z,29.4012,-89.0355,1.0,28.656,11111222 
WAVCIS,ioos:station:WAVCIS:CSI16:2,2010-02-02T04:15:00Z,29.4012,-89.0355,1.0,28.596,11111222 
WAVCIS,ioos:station:WAVCIS:CSI16:2,2010-02-02T04:30:00Z,29.4012,-89.0355,1.0,28.662,11111222 
WAVCIS,ioos:station:WAVCIS:CSI16:2,2010-02-02T04:45:00Z,29.4012,-89.0355,1.0,28.666,11111222 
WAVCIS,ioos:station:WAVCIS:CSI16:2,2010-02-02T05:00:00Z,29.4012,-89.0355,1.0,28.589,11111222 
WAVCIS,ioos:station:WAVCIS:CSI16:2,2010-02-02T05:15:00Z,29.4012,-89.0355,1.0,28.638,11111222 
WAVCIS,ioos:station:WAVCIS:CSI16:2,2010-02-02T05:30:00Z,29.4012,-89.0355,1.0,28.534,11111222 
WAVCIS,ioos:station:WAVCIS:CSI16:2,2010-02-02T05:45:00Z,29.4012,-89.0355,1.0,28.627,11111222 
WAVCIS,ioos:station:WAVCIS:CSI16:2,2010-02-02T06:00:00Z,29.4012,-89.0355,1.0,28.624,11111222 
WAVCIS,ioos:station:WAVCIS:CSI16:2,2010-02-02T06:15:00Z,29.4012,-89.0355,1.0,28.645,11111222 
WAVCIS,ioos:station:WAVCIS:CSI16:2,2010-02-02T06:30:00Z,29.4012,-89.0355,1.0,28.638,11111222 
WAVCIS,ioos:station:WAVCIS:CSI16:2,2010-02-02T06:45:00Z,29.4012,-89.0355,1.0,28.673,11111222 
WAVCIS,ioos:station:WAVCIS:CSI16:2,2010-02-02T07:00:00Z,29.4012,-89.0355,1.0,28.685,11111222 
WAVCIS,ioos:station:WAVCIS:CSI16:2,2010-02-02T07:15:00Z,29.4012,-89.0355,1.0,28.666,11111222 
WAVCIS,ioos:station:WAVCIS:CSI16:2,2010-02-02T07:30:00Z,29.4012,-89.0355,1.0,28.664,11111222 
WAVCIS,ioos:station:WAVCIS:CSI16:2,2010-02-02T07:45:00Z,29.4012,-89.0355,1.0,28.667,11111222 
WAVCIS,ioos:station:WAVCIS:CSI16:2,2010-02-02T08:00:00Z,29.4012,-89.0355,1.0,28.664,11111222 
WAVCIS,ioos:station:WAVCIS:CSI16:2,2010-02-02T08:15:00Z,29.4012,-89.0355,1.0,28.521,11111222 
WAVCIS,ioos:station:WAVCIS:CSI16:2,2010-02-02T08:30:00Z,29.4012,-89.0355,1.0,28.581,11111222 
WAVCIS,ioos:station:WAVCIS:CSI16:2,2010-02-02T08:45:00Z,29.4012,-89.0355,1.0,28.687,11111222 
WAVCIS,ioos:station:WAVCIS:CSI16:2,2010-02-02T09:00:00Z,29.4012,-89.0355,1.0,28.741,11111222 
WAVCIS,ioos:station:WAVCIS:CSI16:2,2010-02-02T09:15:00Z,29.4012,-89.0355,1.0,28.759,11111222 
WAVCIS,ioos:station:WAVCIS:CSI16:2,2010-02-02T09:30:00Z,29.4012,-89.0355,1.0,28.793,11111222 
WAVCIS,ioos:station:WAVCIS:CSI16:2,2010-02-02T09:45:00Z,29.4012,-89.0355,1.0,28.845,11111222 
WAVCIS,ioos:station:WAVCIS:CSI16:2,2010-02-02T10:00:00Z,29.4012,-89.0355,1.0,28.825,11111222 
WAVCIS,ioos:station:WAVCIS:CSI16:2,2010-02-02T10:15:00Z,29.4012,-89.0355,1.0,28.781,11111222 
WAVCIS,ioos:station:WAVCIS:CSI16:2,2010-02-02T10:30:00Z,29.4012,-89.0355,1.0,28.895,11111222 
WAVCIS,ioos:station:WAVCIS:CSI16:2,2010-02-02T10:45:00Z,29.4012,-89.0355,1.0,28.91,11111222 
WAVCIS,ioos:station:WAVCIS:CSI16:2,2010-02-02T11:00:00Z,29.4012,-89.0355,1.0,28.921,11111222 
WAVCIS,ioos:station:WAVCIS:CSI16:2,2010-02-02T11:15:00Z,29.4012,-89.0355,1.0,28.937,11111222 
WAVCIS,ioos:station:WAVCIS:CSI16:2,2010-02-02T11:30:00Z,29.4012,-89.0355,1.0,28.944,11111222 
WAVCIS,ioos:station:WAVCIS:CSI16:2,2010-02-02T11:45:00Z,29.4012,-89.0355,1.0,28.968,11111222 
WAVCIS,ioos:station:WAVCIS:CSI16:2,2010-02-02T12:00:00Z,29.4012,-89.0355,1.0,28.959,11111222 
WAVCIS,ioos:station:WAVCIS:CSI16:2,2010-02-02T12:15:00Z,29.4012,-89.0355,1.0,28.994,11111222 
WAVCIS,ioos:station:WAVCIS:CSI16:2,2010-02-02T12:30:00Z,29.4012,-89.0355,1.0,29.041,11111222 
WAVCIS,ioos:station:WAVCIS:CSI16:2,2010-02-02T12:45:00Z,29.4012,-89.0355,1.0,29.092,11111222 
WAVCIS,ioos:station:WAVCIS:CSI16:2,2010-02-02T13:00:00Z,29.4012,-89.0355,1.0,28.894,11111222 
WAVCIS,ioos:station:WAVCIS:CSI16:2,2010-02-02T13:15:00Z,29.4012,-89.0355,1.0,28.963,11111222 
WAVCIS,ioos:station:WAVCIS:CSI16:2,2010-02-02T13:30:00Z,29.4012,-89.0355,1.0,28.855,11111222 
WAVCIS,ioos:station:WAVCIS:CSI16:2,2010-02-02T13:45:00Z,29.4012,-89.0355,1.0,28.816,11111222 
WAVCIS,ioos:station:WAVCIS:CSI16:2,2010-02-02T14:00:00Z,29.4012,-89.0355,1.0,28.508,11111222 
WAVCIS,ioos:station:WAVCIS:CSI16:2,2010-02-02T14:15:00Z,29.4012,-89.0355,1.0,28.828,11111222 
WAVCIS,ioos:station:WAVCIS:CSI16:2,2010-02-02T14:30:00Z,29.4012,-89.0355,1.0,28.931,11111222 
WAVCIS,ioos:station:WAVCIS:CSI16:2,2010-02-02T14:45:00Z,29.4012,-89.0355,1.0,29.007,11111222 
WAVCIS,ioos:station:WAVCIS:CSI16:2,2010-02-02T15:00:00Z,29.4012,-89.0355,1.0,29.026,11111222 
WAVCIS,ioos:station:WAVCIS:CSI16:2,2010-02-02T15:15:00Z,29.4012,-89.0355,1.0,29.046,11111222 
WAVCIS,ioos:station:WAVCIS:CSI16:2,2010-02-02T15:30:00Z,29.4012,-89.0355,1.0,29.057,11111222 
WAVCIS,ioos:station:WAVCIS:CSI16:2,2010-02-02T15:45:00Z,29.4012,-89.0355,1.0,29.044,11111222 
WAVCIS,ioos:station:WAVCIS:CSI16:2,2010-02-02T16:00:00Z,29.4012,-89.0355,1.0,29.0,11111222 
WAVCIS,ioos:station:WAVCIS:CSI16:2,2010-02-02T16:15:00Z,29.4012,-89.0355,1.0,29.014,11111222 
WAVCIS,ioos:station:WAVCIS:CSI16:2,2010-02-02T16:30:00Z,29.4012,-89.0355,1.0,28.968,11111222 
WAVCIS,ioos:station:WAVCIS:CSI16:2,2010-02-02T16:45:00Z,29.4012,-89.0355,1.0,29.0,11111222 
WAVCIS,ioos:station:WAVCIS:CSI16:2,2010-02-02T17:00:00Z,29.4012,-89.0355,1.0,29.011,11111222 
WAVCIS,ioos:station:WAVCIS:CSI16:2,2010-02-02T17:15:00Z,29.4012,-89.0355,1.0,29.008,11111222 
WAVCIS,ioos:station:WAVCIS:CSI16:2,2010-02-02T17:30:00Z,29.4012,-89.0355,1.0,29.033,11111222 
WAVCIS,ioos:station:WAVCIS:CSI16:2,2010-02-02T17:45:00Z,29.4012,-89.0355,1.0,29.016,11111222 
WAVCIS,ioos:station:WAVCIS:CSI16:2,2010-02-02T18:00:00Z,29.4012,-89.0355,1.0,28.923,11111222 
WAVCIS,ioos:station:WAVCIS:CSI16:2,2010-02-02T18:15:00Z,29.4012,-89.0355,1.0,28.917,11111222 
WAVCIS,ioos:station:WAVCIS:CSI16:2,2010-02-02T18:30:00Z,29.4012,-89.0355,1.0,28.916,11111222 
WAVCIS,ioos:station:WAVCIS:CSI16:2,2010-02-02T18:45:00Z,29.4012,-89.0355,1.0,28.913,11111222 
WAVCIS,ioos:station:WAVCIS:CSI16:2,2010-02-02T19:00:00Z,29.4012,-89.0355,1.0,28.917,11111222 
WAVCIS,ioos:station:WAVCIS:CSI16:2,2010-02-02T19:15:00Z,29.4012,-89.0355,1.0,28.961,11111222 
WAVCIS,ioos:station:WAVCIS:CSI16:2,2010-02-02T19:30:00Z,29.4012,-89.0355,1.0,29.0,11111222 
WAVCIS,ioos:station:WAVCIS:CSI16:2,2010-02-02T19:45:00Z,29.4012,-89.0355,1.0,29.006,11111222 
WAVCIS,ioos:station:WAVCIS:CSI16:2,2010-02-02T20:00:00Z,29.4012,-89.0355,1.0,29.013,11111222 
WAVCIS,ioos:station:WAVCIS:CSI16:2,2010-02-02T20:15:00Z,29.4012,-89.0355,1.0,29.031,11111222 
WAVCIS,ioos:station:WAVCIS:CSI16:2,2010-02-02T20:30:00Z,29.4012,-89.0355,1.0,29.036,11111222 
WAVCIS,ioos:station:WAVCIS:CSI16:2,2010-02-02T20:45:00Z,29.4012,-89.0355,1.0,29.04,11111222 
WAVCIS,ioos:station:WAVCIS:CSI16:2,2010-02-02T21:00:00Z,29.4012,-89.0355,1.0,29.024,11111222 
WAVCIS,ioos:station:WAVCIS:CSI16:2,2010-02-02T21:15:00Z,29.4012,-89.0355,1.0,29.003,11111222 
WAVCIS,ioos:station:WAVCIS:CSI16:2,2010-02-02T21:30:00Z,29.4012,-89.0355,1.0,29.041,11111222 
WAVCIS,ioos:station:WAVCIS:CSI16:2,2010-02-02T21:45:00Z,29.4012,-89.0355,1.0,29.055,11111222 
WAVCIS,ioos:station:WAVCIS:CSI16:2,2010-02-02T22:00:00Z,29.4012,-89.0355,1.0,29.06,11111222 
WAVCIS,ioos:station:WAVCIS:CSI16:2,2010-02-02T22:15:00Z,29.4012,-89.0355,1.0,29.068,11111222 
WAVCIS,ioos:station:WAVCIS:CSI16:2,2010-02-02T22:30:00Z,29.4012,-89.0355,1.0,29.034,11111222 
WAVCIS,ioos:station:WAVCIS:CSI16:2,2010-02-02T22:45:00Z,29.4012,-89.0355,1.0,29.062,11111222 
WAVCIS,ioos:station:WAVCIS:CSI16:2,2010-02-02T23:00:00Z,29.4012,-89.0355,1.0,29.066,11111222 
WAVCIS,ioos:station:WAVCIS:CSI16:2,2010-02-02T23:15:00Z,29.4012,-89.0355,1.0,29.071,11111222 
WAVCIS,ioos:station:WAVCIS:CSI16:2,2010-02-02T23:30:00Z,29.4012,-89.0355,1.0,29.051,11111222 
WAVCIS,ioos:station:WAVCIS:CSI16:2,2010-02-02T23:45:00Z,29.4012,-89.0355,1.0,29.06,11111222 
WAVCIS,ioos:station:WAVCIS:CSI16:2,2010-02-03T00:00:00Z,29.4012,-89.0355,1.0,29.059,11111222 
WAVCIS,ioos:station:WAVCIS:CSI16:2,2010-02-03T00:15:00Z,29.4012,-89.0355,1.0,29.059,11111222 
WAVCIS,ioos:station:WAVCIS:CSI16:2,2010-02-03T00:30:00Z,29.4012,-89.0355,1.0,29.063,11111222 
WAVCIS,ioos:station:WAVCIS:CSI16:2,2010-02-03T00:45:00Z,29.4012,-89.0355,1.0,29.066,11111222 
WAVCIS,ioos:station:WAVCIS:CSI16:2,2010-02-03T01:00:00Z,29.4012,-89.0355,1.0,29.054,11111222 
WAVCIS,ioos:station:WAVCIS:CSI16:2,2010-02-03T01:15:00Z,29.4012,-89.0355,1.0,29.054,11111222 
WAVCIS,ioos:station:WAVCIS:CSI16:2,2010-02-03T01:30:00Z,29.4012,-89.0355,1.0,29.051,11111222 
WAVCIS,ioos:station:WAVCIS:CSI16:2,2010-02-03T01:45:00Z,29.4012,-89.0355,1.0,29.039,11111222 
WAVCIS,ioos:station:WAVCIS:CSI16:2,2010-02-03T02:00:00Z,29.4012,-89.0355,1.0,29.001,11111222 
WAVCIS,ioos:station:WAVCIS:CSI16:2,2010-02-03T02:15:00Z,29.4012,-89.0355,1.0,29.037,11111222 
WAVCIS,ioos:station:WAVCIS:CSI16:2,2010-02-03T02:30:00Z,29.4012,-89.0355,1.0,29.065,11111222 
WAVCIS,ioos:station:WAVCIS:CSI16:2,2010-02-03T02:45:00Z,29.4012,-89.0355,1.0,29.052,11111222 
WAVCIS,ioos:station:WAVCIS:CSI16:2,2010-02-03T03:00:00Z,29.4012,-89.0355,1.0,29.052,11111222 
WAVCIS,ioos:station:WAVCIS:CSI16:2,2010-02-03T03:15:00Z,29.4012,-89.0355,1.0,29.049,11111222 
WAVCIS,ioos:station:WAVCIS:CSI16:2,2010-02-03T03:30:00Z,29.4012,-89.0355,1.0,29.055,11111222 
WAVCIS,ioos:station:WAVCIS:CSI16:2,2010-02-03T03:45:00Z,29.4012,-89.0355,1.0,29.104,11111222 
WAVCIS,ioos:station:WAVCIS:CSI16:2,2010-02-03T04:00:00Z,29.4012,-89.0355,1.0,29.175,11111222 
WAVCIS,ioos:station:WAVCIS:CSI16:2,2010-02-03T04:15:00Z,29.4012,-89.0355,1.0,29.3,11111222 
WAVCIS,ioos:station:WAVCIS:CSI16:2,2010-02-03T04:30:00Z,29.4012,-89.0355,1.0,29.435,11111222 
WAVCIS,ioos:station:WAVCIS:CSI16:2,2010-02-03T04:45:00Z,29.4012,-89.0355,1.0,29.392,11111222 
WAVCIS,ioos:station:WAVCIS:CSI16:2,2010-02-03T05:00:00Z,29.4012,-89.0355,1.0,29.424,11111222 
WAVCIS,ioos:station:WAVCIS:CSI16:2,2010-02-03T05:15:00Z,29.4012,-89.0355,1.0,29.358,11111222 
WAVCIS,ioos:station:WAVCIS:CSI16:2,2010-02-03T05:30:00Z,29.4012,-89.0355,1.0,29.418,11111222 
WAVCIS,ioos:station:WAVCIS:CSI16:2,2010-02-03T05:45:00Z,29.4012,-89.0355,1.0,29.423,11111222 
WAVCIS,ioos:station:WAVCIS:CSI16:2,2010-02-03T06:00:00Z,29.4012,-89.0355,1.0,29.439,11111222 
WAVCIS,ioos:station:WAVCIS:CSI16:2,2010-02-03T06:15:00Z,29.4012,-89.0355,1.0,29.46,11111222 
WAVCIS,ioos:station:WAVCIS:CSI16:2,2010-02-03T06:30:00Z,29.4012,-89.0355,1.0,29.456,11111222 
WAVCIS,ioos:station:WAVCIS:CSI16:2,2010-02-03T06:45:00Z,29.4012,-89.0355,1.0,29.468,11111222 
WAVCIS,ioos:station:WAVCIS:CSI16:2,2010-02-03T07:00:00Z,29.4012,-89.0355,1.0,29.463,11111222 
WAVCIS,ioos:station:WAVCIS:CSI16:2,2010-02-03T07:15:00Z,29.4012,-89.0355,1.0,29.451,11111222 
WAVCIS,ioos:station:WAVCIS:CSI16:2,2010-02-03T07:30:00Z,29.4012,-89.0355,1.0,29.441,11111222 
WAVCIS,ioos:station:WAVCIS:CSI16:2,2010-02-03T07:45:00Z,29.4012,-89.0355,1.0,29.431,11111222 
WAVCIS,ioos:station:WAVCIS:CSI16:2,2010-02-03T08:00:00Z,29.4012,-89.0355,1.0,29.419,11111222 
WAVCIS,ioos:station:WAVCIS:CSI16:2,2010-02-03T08:15:00Z,29.4012,-89.0355,1.0,29.405,11111222 
WAVCIS,ioos:station:WAVCIS:CSI16:2,2010-02-03T08:30:00Z,29.4012,-89.0355,1.0,29.39,11111222 
WAVCIS,ioos:station:WAVCIS:CSI16:2,2010-02-03T08:45:00Z,29.4012,-89.0355,1.0,29.333,11111222 
WAVCIS,ioos:station:WAVCIS:CSI16:2,2010-02-03T09:00:00Z,29.4012,-89.0355,1.0,29.271,11111222 
WAVCIS,ioos:station:WAVCIS:CSI16:2,2010-02-03T09:15:00Z,29.4012,-89.0355,1.0,29.219,11111222 
WAVCIS,ioos:station:WAVCIS:CSI16:2,2010-02-03T09:30:00Z,29.4012,-89.0355,1.0,29.174,11111222 
WAVCIS,ioos:station:WAVCIS:CSI16:2,2010-02-03T09:45:00Z,29.4012,-89.0355,1.0,29.167,11111222 
WAVCIS,ioos:station:WAVCIS:CSI16:2,2010-02-03T10:00:00Z,29.4012,-89.0355,1.0,29.167,11111222 
WAVCIS,ioos:station:WAVCIS:CSI16:2,2010-02-03T10:15:00Z,29.4012,-89.0355,1.0,29.223,11111222 
WAVCIS,ioos:station:WAVCIS:CSI16:2,2010-02-03T10:30:00Z,29.4012,-89.0355,1.0,29.149,11111222 
WAVCIS,ioos:station:WAVCIS:CSI16:2,2010-02-03T10:45:00Z,29.4012,-89.0355,1.0,29.136,11111222 
WAVCIS,ioos:station:WAVCIS:CSI16:2,2010-02-03T11:00:00Z,29.4012,-89.0355,1.0,29.148,11111222 
WAVCIS,ioos:station:WAVCIS:CSI16:2,2010-02-03T11:15:00Z,29.4012,-89.0355,1.0,29.135,11111222 
WAVCIS,ioos:station:WAVCIS:CSI16:2,2010-02-03T11:30:00Z,29.4012,-89.0355,1.0,29.118,11111222 
WAVCIS,ioos:station:WAVCIS:CSI16:2,2010-02-03T11:45:00Z,29.4012,-89.0355,1.0,29.1,11111222 
WAVCIS,ioos:station:WAVCIS:CSI16:2,2010-02-03T12:00:00Z,29.4012,-89.0355,1.0,29.073,11111222 
WAVCIS,ioos:station:WAVCIS:CSI16:2,2010-02-03T12:15:00Z,29.4012,-89.0355,1.0,29.041,11111222 
WAVCIS,ioos:station:WAVCIS:CSI16:2,2010-02-03T12:30:00Z,29.4012,-89.0355,1.0,29.04,11111222 
WAVCIS,ioos:station:WAVCIS:CSI16:2,2010-02-03T12:45:00Z,29.4012,-89.0355,1.0,28.934,11111222 
WAVCIS,ioos:station:WAVCIS:CSI16:2,2010-02-03T13:00:00Z,29.4012,-89.0355,1.0,28.822,11111222 
WAVCIS,ioos:station:WAVCIS:CSI16:2,2010-02-03T13:15:00Z,29.4012,-89.0355,1.0,28.668,11111222 
WAVCIS,ioos:station:WAVCIS:CSI16:2,2010-02-03T13:30:00Z,29.4012,-89.0355,1.0,28.633,11111222 
WAVCIS,ioos:station:WAVCIS:CSI16:2,2010-02-03T13:45:00Z,29.4012,-89.0355,1.0,28.678,11111222 
WAVCIS,ioos:station:WAVCIS:CSI16:2,2010-02-03T14:00:00Z,29.4012,-89.0355,1.0,28.419,11111222 
WAVCIS,ioos:station:WAVCIS:CSI16:2,2010-02-03T14:15:00Z,29.4012,-89.0355,1.0,28.36,11111222 
WAVCIS,ioos:station:WAVCIS:CSI16:2,2010-02-03T14:30:00Z,29.4012,-89.0355,1.0,28.408,11111222 
WAVCIS,ioos:station:WAVCIS:CSI16:2,2010-02-03T14:45:00Z,29.4012,-89.0355,1.0,28.39,11111222 
WAVCIS,ioos:station:WAVCIS:CSI16:2,2010-02-03T15:00:00Z,29.4012,-89.0355,1.0,28.407,11111222 
WAVCIS,ioos:station:WAVCIS:CSI16:2,2010-02-03T15:15:00Z,29.4012,-89.0355,1.0,28.307,11111222 